Погода в Монахане

Ирландия     54°14′51″N   6°58′15″W
темп.,
°C
ветер,
м/с
пор.,
м/с
влажн.,
%
обл.,
%
осадки,
мм/ч
давл.,
гПа
погр.,
м
23 октября, сб
сб2301:00+6ю3109696 0.0 1020225
04:00+6ю51589100 0.0 1018478
07:00+7ю61688100 0.0 1015658
10:00+10ю71685100 0.1 1015852
13:00+12ю81580100 0.1 10131056
16:00+11ю91892100 0.9 1011957
19:00+11ю91794100 1.9 1009979
22:00+11ю91894100 3.5 10081168
24 октября, вс
вс2401:00+11ю81795100 6.2 1006948
04:00+12ююз6139373 1.3 1006880
07:00+10ююз5129551 1.6 1006715
10:00+10ююз6139347 0.0 1007823
13:00+12ююз7138792 0.1 10071116
16:00+12юз7138868 0.8 10061292
19:00+9юз7139220 1.5 1006813
22:00+8юз6139520 0.0 1007640
25 октября, пн
пн2501:00+7юз61395100 0.0 1008601
04:00+7юз51295100 0.0 1008569
07:00+6юз5119747 0.3 1008419
10:00+7юз512947 0.0 1010600
13:00+10юз51185100 0.1 1011890
16:00+10юз598586 0.1 1010894
19:00+7ююз41096100 0.3 1012324
22:00+8ююз41196100 0.0 1012386
26 октября, вт
вт2601:00+8ююз41295100 0.0 1012398
04:00+9ююз71794100 0.8 1010889
07:00+11юз61598100 1.2 1010769
10:00+13юз61292100 0.1 10111015
13:00+14юз71390100 0.1 1012944
16:00+15юз61388100 0.0 1011970
19:00+13ююз5139332 0.1 1011682
22:00+13ю71593100 0.0 1010684
27 октября, ср
ср2701:00+13ююз81889100 0.0 1009767
04:00+14ююз91782100 0.0 10081111
07:00+14ю91887100 0.0 10061203
10:00+15ююз8159198 0.9 10071051
13:00+14ююз61396100 7.9 1006965
16:00+14ю71594100 7.6 10041248
19:00+11юз399424 16.3 1005391
22:00+9юз310955 0.0 1007253